Dewpoint
6 3 -7 -6 -4 -1 -0 -2 -3 -7 -0 7 8 9 9 9 8 9 8 6 6 5 4 4 4 3 6 3 7 8 8 9 7 6 4 2 2 1 1 -0 -0 -0 1 1 1
6 6 2 -7 -3 -1 -0 -2 -4 -5 -7 5 8 9 9 9 9 9 6 7 7 6 6 6 4 3 5 6 6 9 9 8 6 4 4 3 3 2 2 2 2 2 2 2 1
6 6 5 0 1 -0 -0 -3 -4 -4 -4 -6 4 7 7 8 9 8 7 6 7 7 6 7 5 4 5 6 7 8 9 7 6 6 5 4 4 4 3 2 1 2 2 3 1
5 6 5 3 1 1 -0 -2 -1 -1 -1 -3 -5 1 5 7 7 5 5 6 6 8 9 8 6 5 6 7 6 7 7 7 7 7 7 7 6 4 3 2 3 2 2 2 2
5 5 6 3 1 3 1 0 1 0 -0 -1 -2 -2 -1 6 6 4 3 3 6 8 9 9 8 6 6 5 5 6 6 6 6 7 7 7 7 7 5 5 4 4 3 2 2
5 5 5 4 3 0 4 1 3 2 0 1 -1 2 3 3 -3 4 4 4 4 8 8 8 8 7 7 5 5 5 5 5 5 6 6 6 6 6 6 5 5 4 3 2 2
5 5 5 5 4 1 4 2 4 3 2 -0 1 2 4 1 1 -1 5 4 4 4 3 5 5 7 7 7 6 5 6 5 5 5 6 6 7 7 6 6 6 5 4 3 2
4 4 4 5 5 1 -1 2 4 6 4 2 1 1 1 0 0 3 2 4 4 4 4 3 6 5 4 4 5 6 6 8 4 5 5 6 7 5 5 5 5 5 4 3 2
5 4 4 5 5 1 -0 2 3 4 4 3 2 2 2 1 0 1 2 3 3 4 5 4 3 2 2 6 7 7 7 7 5 4 6 7 7 4 3 4 4 4 4 3 3
4 5 5 4 5 2 -1 4 3 3 3 5 4 3 2 1 1 0 0 3 2 2 2 2 2 4 4 6 6 6 7 6 6 5 5 6 6 4 4 5 4 4 3 3 3
5 5 6 5 4 3 1 5 3 3 5 5 4 4 1 2 2 2 1 2 3 2 3 1 5 6 4 3 4 5 6 6 4 3 4 5 5 4 4 5 5 5 4 4 3
6 5 6 5 6 4 1 4 2 3 4 4 5 4 3 3 3 2 2 3 3 4 2 4 4 2 1 2 3 4 5 5 4 3 4 4 4 3 3 3 5 5 4 4 4
4 5 5 5 6 5 3 2 3 3 2 2 3 5 5 3 3 3 3 3 3 4 4 4 2 1 2 3 4 4 5 4 4 2 2 2 2 -2 -1 1 3 5 4 4 4
3 5 6 6 5 5 4 2 3 3 -1 1 4 4 4 4 4 3 3 2 3 4 4 4 1 1 2 3 3 4 3 4 4 5 5 3 3 -1 1 1 2 4 5 4 4
2 5 6 6 5 5 3 1 4 3 -2 0 3 4 5 4 3 3 3 2 3 4 3 4 4 2 3 3 2 3 2 3 4 6 5 4 6 3 2 3 4 5 4 4 4
1 4 6 6 5 3 3 1 3 -1 -1 4 3 3 4 4 4 3 3 3 4 4 3 2 1 2 2 1 1 2 3 4 4 5 6 3 5 1 -1 3 4 3 4 4 3
1 3 5 5 4 1 1 3 2 -1 -0 4 3 3 3 3 3 4 4 5 6 6 5 5 5 2 2 3 1 1 4 6 7 7 5 2 4 2 -0 0 1 3 3 3 3
0 2 3 5 4 0 2 2 1 -1 2 1 2 4 4 3 3 4 4 4 3 4 5 5 5 5 3 3 4 3 3 5 5 5 4 0 5 2 1 -2 -2 -1 1 2 2
1 2 2 5 3 2 2 3 0 -1 2 3 3 4 4 3 3 4 3 2 2 2 4 4 4 2 2 1 2 5 6 2 3 3 7 5 5 5 5 5 3 2 2 2 3
2 1 3 5 1 3 3 1 -0 2 3 2 3 3 3 2 3 3 3 2 2 1 1 2 3 1 2 1 1 2 1 5 6 6 5 3 6 5 5 3 2 2 1 2 3
2 1 4 3 3 3 4 1 1 3 3 3 3 4 3 3 3 2 1 1 2 2 1 2 2 2 2 4 3 4 4 3 3 3 4 4 1 4 3 2 2 2 2 3 4
1 2 3 4 4 4 4 2 1 4 3 3 3 2 4 2 3 2 3 1 1 2 4 2 3 4 2 2 0 1 2 2 6 2 1 4 4 0 2 0 2 2 3 4 5
3 2 4 4 4 4 3 3 2 3 3 3 4 3 3 3 3 2 1 -1 1 1 3 3 5 5 6 4 3 5 4 2 2 4 3 2 -1 2 0 2 2 4 3 4 5
3 2 4 4 3 3 3 3 3 2 2 2 4 3 4 4 2 2 2 -1 -1 0 3 3 5 5 5 6 5 5 4 3 2 3 3 3 1 -0 1 2 2 3 4 4 5
2 3 2 3 4 2 2 3 3 5 3 3 4 5 5 4 4 4 2 1 1 1 4 4 5 5 5 5 5 6 4 3 3 2 3 0 3 1 3 1 1 2 3 4 4
3 4 3 2 3 3 3 4 4 4 5 5 5 5 4 6 2 1 0 1 3 4 4 4 4 5 5 4 5 6 5 5 3 2 2 3 5 3 2 1 1 2 3 3 4
2 5 3 3 3 4 5 4 4 4 4 3 4 5 5 4 3 3 2 2 2 4 5 4 5 6 8 7 7 7 6 6 4 3 4 7 4 2 3 0 0 2 3 3 3
Wind_Speed
18 15 13 14 13 12 11 10 11 10 10 10 12 14 15 12 13 15 15 11 10 13 10 10 11 11 8 7 10 5 1 7 8 8 8 2 1 4 6 5 6 4 6 2 4
19 18 14 14 13 12 11 9 9 9 10 11 10 13 16 13 14 20 17 12 11 10 10 8 7 7 4 3 6 6 5 7 4 4 5 2 6 9 5 14 7 4 3 4 6
20 18 17 15 14 12 10 8 7 7 8 10 12 11 10 9 13 21 19 21 19 13 13 8 8 4 4 5 5 4 10 7 4 11 14 7 6 12 6 6 13 9 5 2 5
20 20 19 17 14 13 10 8 7 7 7 8 9 12 13 11 5 2 3 9 23 22 14 10 6 2 2 4 6 5 5 11 7 12 7 4 5 5 10 9 14 13 9 6 9
20 20 19 17 15 14 11 9 8 7 6 6 8 11 13 11 14 3 4 3 8 21 20 13 7 2 3 3 6 5 3 10 16 19 22 24 20 13 19 26 28 24 22 18 15
21 21 20 17 16 14 13 11 9 7 6 5 7 10 11 4 10 12 9 9 7 12 15 16 7 11 6 5 4 4 7 10 10 15 17 15 20 22 17 23 25 27 25 24 22
23 22 21 15 17 15 14 11 9 7 6 6 7 10 11 18 7 14 18 12 8 5 5 6 15 7 2 4 10 6 6 6 7 8 7 8 21 23 26 27 25 28 28 26 24
26 23 22 19 17 15 15 13 10 8 6 6 6 7 8 3 16 14 16 19 15 13 8 6 5 8 7 9 4 3 2 2 3 10 8 10 23 4 22 31 31 31 32 28 31
26 26 23 21 17 15 14 12 11 8 7 6 6 7 9 6 9 19 17 11 12 15 13 10 7 6 4 3 6 5 7 4 5 7 5 12 13 6 24 25 25 28 29 30 32
26 27 24 23 18 14 15 13 11 9 8 7 7 5 10 4 4 7 22 16 7 9 8 8 7 4 3 6 9 4 4 3 5 4 3 13 19 11 22 23 24 27 35 36 34
27 28 26 24 20 15 19 16 5 5 17 11 8 6 2 4 5 4 13 18 11 5 5 3 5 9 12 10 7 5 5 5 4 7 6 8 15 13 16 21 23 27 30 34 37
24 28 27 25 23 22 22 19 9 3 4 29 14 21 7 6 2 6 13 13 8 6 5 1 11 7 5 6 9 11 13 16 7 9 9 12 21 15 12 18 21 25 31 39 35
19 32 29 28 25 25 26 26 8 4 2 7 23 21 18 16 8 10 16 13 5 8 7 12 4 9 10 10 10 10 12 10 13 9 13 12 29 21 18 23 28 31 34 38 38
24 24 31 30 29 29 25 22 18 3 3 5 6 5 11 11 6 25 20 10 5 11 11 12 16 15 10 13 10 19 9 13 12 5 6 5 12 8 6 16 19 25 29 36 35
24 14 31 39 28 31 25 19 15 5 2 3 4 5 7 11 4 5 21 17 12 9 6 6 5 13 19 15 12 10 7 10 10 7 7 15 8 6 11 18 14 10 24 33 35
28 16 26 39 29 26 23 22 15 5 6 6 5 6 5 5 1 3 8 16 3 8 14 10 5 6 7 11 16 1 9 7 7 8 14 11 12 16 12 12 8 9 25 32 34
18 20 29 37 34 27 29 30 4 4 1 6 6 6 5 6 5 6 5 10 5 6 8 4 15 3 4 5 9 12 5 3 4 7 8 8 11 24 6 7 12 13 24 31 33
16 25 14 41 32 36 43 4 4 5 5 2 5 5 5 8 5 9 6 10 13 6 2 8 6 14 8 8 6 16 15 5 6 4 4 12 10 9 15 24 32 31 25 21 32
18 15 18 34 33 45 32 3 8 6 6 10 7 5 7 7 4 7 11 11 8 16 10 3 5 3 7 15 6 5 11 19 8 8 4 5 7 6 9 11 11 14 21 26 31
5 10 16 39 39 45 9 5 4 3 6 6 7 9 7 8 9 8 6 4 7 11 10 5 4 6 8 5 10 17 7 4 6 5 7 7 6 8 5 15 14 12 12 26 31
7 3 17 36 46 27 5 5 4 6 8 6 6 7 7 5 8 7 5 5 9 9 16 6 5 2 3 11 14 7 13 7 4 5 4 4 8 4 8 12 10 10 18 27 33
8 2 33 47 8 5 5 6 6 5 4 2 2 8 8 8 7 6 9 7 15 10 11 11 4 6 14 3 14 13 14 17 4 5 7 5 10 2 9 15 7 7 18 24 28
10 7 43 43 5 6 5 3 4 4 6 5 7 9 10 8 4 8 5 8 18 13 12 9 4 5 3 6 12 8 11 17 16 3 9 7 12 3 9 12 10 10 17 24 30
9 2 13 23 6 11 7 6 6 8 5 10 4 10 7 7 7 3 5 4 18 12 14 13 5 8 9 3 3 7 16 21 19 10 14 17 20 18 20 9 7 1 20 25 32
6 4 8 7 4 12 8 7 10 6 8 11 5 9 6 6 6 9 8 10 4 11 10 8 7 10 17 18 14 6 15 22 24 24 15 17 15 14 17 19 2 9 16 26 31
6 5 8 12 12 12 13 8 12 11 7 6 9 7 14 8 7 4 4 4 4 5 9 4 4 3 15 23 26 15 17 19 23 20 22 17 20 13 21 16 8 17 19 22 28
9 4 8 15 13 9 8 8 13 7 11 13 10 11 10 13 23 29 17 14 7 9 10 5 3 3 5 3 7 6 21 23 22 19 17 16 12 10 13 8 4 16 22 26 32
Wind_Direction
310 302 287 276 270 270 275 274 270 257 246 237 212 212 223 225 234 245 241 233 233 233 245 257 261 252 257 224 209 181 172 228 218 187 234 119 175 205 338 295 269 202 179 331 240
295 301 292 276 268 269 273 267 263 256 243 230 218 215 226 230 237 248 241 234 229 227 241 255 279 256 216 238 214 179 216 230 226 216 261 242 309 315 346 312 294 254 205 273 223
286 291 297 279 264 265 268 258 258 252 244 234 224 218 218 220 244 264 256 246 224 238 249 249 257 278 224 214 219 217 241 264 297 262 261 260 258 272 267 270 251 248 227 187 198
276 284 293 280 259 258 258 248 250 251 246 234 225 221 218 207 213 148 207 222 227 222 226 228 233 226 247 219 226 268 254 250 282 274 285 282 281 262 246 250 284 291 274 233 208
266 271 279 281 264 250 251 242 245 246 247 230 215 209 205 214 232 206 142 165 188 201 213 224 217 193 223 245 261 228 253 276 277 272 276 285 273 259 257 271 280 279 274 268 256
257 262 271 281 262 249 244 240 242 240 238 232 209 207 209 228 251 200 162 138 140 184 213 224 223 237 282 256 217 278 286 279 285 277 274 271 275 280 262 268 272 276 273 260 267
246 255 259 269 262 254 235 233 235 230 228 229 221 218 227 240 226 217 207 184 162 191 197 229 232 211 325 281 281 283 297 291 241 249 251 281 268 251 264 270 272 270 270 256 256
243 247 249 259 260 249 231 225 236 228 232 225 231 244 247 256 217 199 210 225 225 207 225 241 223 230 249 286 296 296 262 283 251 199 229 180 250 227 240 254 259 262 265 253 258
240 245 243 247 251 241 219 227 231 225 228 228 231 246 267 228 232 210 211 213 210 217 232 246 230 229 245 245 279 196 258 214 321 222 226 204 276 252 245 254 260 262 266 267 266
241 238 236 242 235 232 208 218 224 220 204 214 215 255 249 231 205 211 215 204 172 194 211 219 188 194 173 199 233 245 256 248 220 205 278 264 267 287 281 279 267 260 263 265 267
237 233 232 232 229 221 195 193 181 223 204 200 211 224 217 193 191 195 192 189 192 163 176 202 202 206 208 221 251 298 281 283 313 298 335 280 292 285 271 263 258 262 264 266 261
246 227 227 227 219 203 203 194 196 132 234 227 218 226 155 140 212 189 183 173 179 192 137 289 244 223 220 210 239 249 260 264 282 268 280 293 284 281 271 268 253 251 252 256 260
289 224 224 222 211 200 204 209 216 235 281 259 229 234 234 241 231 220 191 192 179 198 189 219 206 204 228 247 238 239 241 252 256 289 279 289 282 271 259 247 251 243 245 252 256
263 235 220 209 192 196 200 205 209 230 36 237 197 225 197 198 255 221 205 173 194 206 215 245 240 239 260 236 218 253 212 232 247 246 252 171 281 250 245 244 238 238 231 241 246
264 262 215 202 183 189 202 188 187 174 2 156 157 162 174 174 136 189 207 203 220 188 163 222 205 216 228 231 201 246 221 226 228 234 273 257 280 279 202 247 259 245 238 236 240
263 276 236 189 191 200 190 167 157 58 252 175 136 168 156 210 204 117 180 207 161 225 219 231 193 192 218 232 217 215 229 261 241 230 248 233 221 269 241 234 250 242 243 240 233
261 256 202 196 182 176 160 146 97 169 152 176 179 172 188 181 204 192 172 200 207 198 221 217 233 235 254 189 189 201 230 233 222 210 239 199 219 246 256 259 241 230 237 240 231
260 258 274 198 181 162 157 116 145 187 183 173 130 142 189 167 208 202 223 226 223 217 249 219 232 197 202 213 172 191 200 213 211 223 231 207 238 241 221 232 235 243 249 246 219
258 290 286 178 176 165 152 164 199 192 155 151 144 181 202 203 199 201 225 234 207 197 220 200 257 168 223 212 180 171 212 217 258 277 268 235 290 291 242 244 237 234 221 216 207
246 267 243 176 167 163 161 198 210 175 123 152 180 196 196 193 190 192 200 227 217 187 184 224 264 202 206 154 207 217 150 190 199 212 246 256 253 240 288 245 233 218 210 205 201
151 302 189 167 167 166 186 203 193 179 136 164 199 185 215 179 199 187 224 256 201 191 181 192 180 283 106 206 193 192 228 219 256 197 217 289 265 233 280 287 220 211 201 183 183
129 219 174 168 158 179 163 167 195 156 150 176 219 230 198 187 188 215 218 224 182 144 185 209 226 233 224 205 219 207 206 207 216 228 235 297 261 238 14 319 211 171 166 170 171
170 195 167 167 161 168 149 141 175 140 170 208 217 212 200 201 210 203 195 227 174 166 177 164 228 259 237 217 217 210 219 215 223 306 218 214 260 200 346 4 339 140 146 153 161
146 141 148 186 163 163 157 189 190 207 216 210 263 209 192 227 225 265 239 253 184 184 141 160 233 223 234 219 171 201 208 202 206 229 238 238 270 286 302 342 350 333 150 155 161
144 179 166 175 206 168 178 175 191 191 209 215 231 233 221 221 224 233 242 261 184 183 166 191 250 238 251 252 234 227 217 198 207 216 218 252 265 283 293 289 266 188 161 151 163
197 160 169 159 157 163 183 203 198 199 206 204 229 218 218 234 213 216 166 190 196 170 186 193 265 255 282 263 235 219 219 214 210 219 237 263 271 242 255 279 196 175 169 163 169
344 122 145 163 175 177 188 189 209 161 211 233 214 234 252 232 236 251 264 269 206 188 192 204 249 270 263 59 123 220 224 211 200 213 219 224 249 285 288 295 237 185 184 179 179
Height
1490 1486 1486 1486 1485 1485 1483 1482 1482 1481 1482 1481 1481 1483 1485 1486 1486 1487 1487 1488 1488 1490 1491 1492 1493 1493 1494 1494 1496 1496 1503 1501 1495 1497 1488 1484 1484 1484 1484 1484 1484 1482 1482 1483 1483
1487 1485 1483 1483 1483 1483 1482 1480 1480 1480 1480 1480 1480 1482 1483 1484 1484 1483 1485 1486 1487 1487 1488 1490 1491 1492 1493 1494 1494 1494 1497 1491 1488 1488 1487 1487 1486 1484 1484 1483 1484 1483 1482 1482 1481
1484 1482 1481 1480 1481 1481 1480 1479 1478 1479 1479 1478 1480 1481 1482 1482 1483 1478 1480 1481 1484 1485 1486 1488 1490 1492 1492 1492 1492 1490 1487 1487 1486 1487 1487 1485 1485 1485 1483 1484 1482 1482 1481 1480 1480
1480 1479 1478 1478 1478 1479 1478 1477 1477 1477 1477 1477 1478 1479 1480 1481 1483 1476 1475 1476 1478 1482 1484 1486 1489 1492 1493 1492 1490 1492 1485 1487 1486 1486 1486 1484 1483 1481 1481 1480 1481 1481 1481 1480 1480
1475 1475 1475 1475 1475 1476 1476 1476 1476 1476 1476 1476 1476 1477 1478 1478 1474 1475 1475 1475 1475 1478 1481 1485 1487 1490 1492 1491 1488 1488 1485 1485 1485 1485 1484 1483 1479 1480 1476 1478 1478 1478 1479 1479 1478
1471 1471 1471 1472 1472 1473 1473 1474 1474 1474 1474 1475 1475 1475 1476 1477 1472 1474 1474 1476 1477 1479 1480 1484 1486 1488 1490 1489 1489 1485 1483 1483 1483 1481 1482 1481 1475 1476 1470 1474 1473 1474 1474 1475 1475
1465 1466 1467 1468 1468 1469 1470 1472 1473 1473 1473 1474 1474 1473 1473 1469 1469 1470 1473 1475 1477 1480 1481 1483 1484 1488 1487 1487 1485 1483 1483 1480 1479 1480 1479 1478 1467 1464 1469 1469 1467 1468 1469 1470 1470
1459 1461 1462 1464 1464 1465 1467 1469 1471 1472 1472 1473 1473 1473 1469 1466 1466 1468 1470 1473 1476 1479 1481 1482 1484 1487 1487 1486 1484 1484 1483 1484 1472 1472 1474 1476 1449 1457 1460 1462 1460 1461 1462 1464 1463
1452 1455 1457 1458 1460 1462 1464 1467 1468 1469 1471 1472 1473 1472 1466 1464 1464 1467 1469 1472 1475 1478 1480 1482 1483 1484 1485 1486 1486 1483 1483 1482 1477 1469 1469 1469 1451 1454 1457 1458 1454 1454 1455 1456 1456
1444 1447 1451 1453 1455 1458 1461 1464 1466 1467 1469 1472 1471 1475 1464 1463 1463 1464 1465 1471 1474 1475 1479 1480 1480 1481 1482 1485 1482 1483 1486 1480 1479 1468 1467 1465 1455 1457 1456 1455 1452 1450 1449 1449 1449
1435 1440 1445 1448 1450 1454 1458 1461 1467 1467 1464 1463 1463 1462 1460 1462 1462 1463 1463 1469 1472 1475 1478 1477 1479 1474 1476 1480 1481 1483 1483 1484 1478 1471 1471 1465 1457 1453 1452 1449 1447 1443 1443 1441 1442
1426 1432 1438 1441 1445 1448 1453 1455 1457 1460 1460 1458 1459 1461 1460 1460 1461 1462 1464 1468 1471 1474 1475 1478 1474 1473 1473 1477 1480 1481 1483 1480 1478 1473 1470 1463 1450 1448 1446 1441 1439 1437 1435 1434 1435
1422 1423 1430 1436 1440 1442 1446 1451 1456 1458 1459 1454 1452 1454 1457 1460 1459 1459 1462 1463 1467 1471 1472 1472 1465 1466 1471 1473 1477 1478 1481 1481 1479 1474 1469 1467 1438 1437 1431 1430 1427 1423 1424 1426 1428
1415 1414 1420 1428 1434 1436 1442 1450 1455 1459 1470 1452 1450 1449 1451 1456 1455 1454 1457 1461 1465 1466 1469 1465 1462 1465 1468 1469 1474 1472 1472 1473 1474 1478 1476 1459 1436 1423 1422 1418 1413 1415 1416 1417 1422
1405 1406 1413 1416 1421 1431 1436 1446 1454 1459 1483 1447 1447 1448 1449 1452 1450 1450 1454 1457 1458 1463 1467 1459 1461 1461 1462 1462 1465 1465 1466 1468 1468 1469 1469 1459 1462 1421 1415 1413 1410 1410 1410 1410 1414
1399 1397 1403 1406 1418 1426 1434 1443 1454 1470 1473 1443 1444 1446 1448 1448 1449 1450 1452 1456 1455 1458 1457 1455 1455 1456 1455 1455 1459 1460 1465 1465 1464 1467 1457 1453 1455 1407 1413 1411 1407 1404 1402 1403 1407
1397 1394 1398 1402 1411 1421 1431 1442 1459 1470 1436 1440 1439 1443 1445 1446 1447 1448 1451 1451 1451 1452 1454 1455 1451 1453 1452 1453 1454 1460 1466 1463 1459 1454 1442 1435 1440 1410 1401 1400 1398 1395 1393 1395 1399
1392 1393 1394 1396 1406 1415 1426 1438 1453 1430 1434 1431 1435 1442 1444 1444 1443 1445 1446 1447 1446 1450 1451 1448 1445 1445 1448 1444 1445 1450 1455 1455 1454 1453 1448 1429 1417 1396 1388 1385 1384 1387 1387 1390 1393
1390 1388 1390 1387 1402 1414 1422 1435 1430 1424 1424 1429 1435 1438 1440 1437 1440 1444 1440 1438 1436 1443 1448 1450 1444 1435 1437 1437 1442 1447 1447 1441 1443 1436 1439 1424 1404 1391 1385 1383 1380 1379 1380 1382 1387
1383 1388 1387 1389 1402 1412 1420 1423 1422 1417 1420 1424 1430 1429 1430 1434 1439 1442 1438 1431 1433 1433 1438 1440 1444 1430 1430 1434 1437 1437 1437 1446 1445 1442 1438 1421 1408 1393 1382 1376 1373 1373 1373 1377 1383
1384 1391 1385 1390 1402 1411 1412 1419 1417 1415 1417 1423 1425 1426 1429 1433 1435 1433 1432 1427 1423 1424 1431 1435 1443 1440 1435 1429 1425 1433 1434 1433 1433 1438 1442 1426 1399 1380 1379 1373 1369 1368 1367 1370 1378
1382 1392 1385 1391 1399 1404 1407 1411 1411 1414 1417 1420 1422 1421 1423 1428 1430 1434 1429 1421 1417 1424 1430 1430 1432 1429 1421 1416 1418 1417 1418 1428 1427 1438 1425 1423 1391 1373 1371 1367 1362 1363 1366 1372 1380
1381 1386 1384 1389 1393 1399 1407 1408 1410 1412 1414 1417 1418 1419 1418 1422 1426 1424 1420 1410 1414 1417 1419 1424 1425 1420 1412 1415 1417 1415 1415 1416 1418 1418 1418 1421 1383 1367 1369 1370 1367 1363 1369 1375 1380
1379 1382 1385 1391 1391 1397 1401 1407 1410 1410 1412 1414 1415 1415 1415 1416 1416 1414 1416 1406 1407 1411 1413 1421 1417 1410 1398 1395 1403 1403 1401 1406 1413 1417 1403 1392 1381 1373 1375 1376 1377 1375 1373 1378 1379
1374 1376 1378 1383 1390 1393 1399 1400 1406 1408 1411 1411 1411 1411 1410 1410 1412 1412 1409 1405 1406 1408 1413 1417 1408 1404 1394 1393 1396 1395 1394 1397 1396 1390 1398 1386 1382 1378 1382 1377 1377 1381 1383 1378 1382
1372 1371 1377 1380 1388 1394 1398 1398 1400 1403 1407 1406 1407 1405 1408 1405 1404 1403 1402 1402 1402 1406 1409 1410 1404 1400 1385 1376 1377 1383 1391 1384 1387 1390 1389 1389 1377 1380 1377 1375 1374 1374 1379 1380 1383
1368 1368 1371 1379 1386 1391 1389 1394 1394 1397 1400 1399 1401 1404 1402 1399 1399 1399 1401 1401 1398 1398 1404 1407 1404 1393 1372 1364 1368 1374 1372 1374 1378 1381 1384 1385 1372 1371 1369 1370 1369 1372 1376 1378 1382